Location: Ferchesar
(52.6477°N, 12.4298°E)
Time: 20:59:49
(UTC+01:00)

Tiros 1 despin weight - Visible Passes

Search period start: 04 March 2021 00:00
Search period end: 14 March 2021 00:00
Orbit: 593 x 642 km, 48.2° (Epoch: 04 March)

Date Brightness Start Highest point End Pass type
(mag) Time Alt. Az. Time Alt. Az. Time Alt. Az.
04 Mar ? 03:22:04 14° ESE 03:22:04 14° ESE 03:22:45 10° ESE visible
04 Mar ? 04:59:07 23° SSW 04:59:13 23° SSW 05:02:55 10° SSE visible
05 Mar ? 03:38:01 14° SE 03:38:01 14° SE 03:38:48 10° SE visible
05 Mar ? 05:15:06 16° SW 05:15:11 16° SW 05:17:58 10° S visible
06 Mar ? 03:54:07 12° SSE 03:54:07 12° SSE 03:54:35 10° SSE visible
12 Mar ? 19:35:49 10° S 19:37:25 13° SSE 19:37:25 13° SSE visible
12 Mar ? 21:14:27 10° SW 21:14:30 10° SW 21:14:30 10° SW visible
13 Mar ? 19:50:33 10° SSW 19:53:43 20° SSE 19:53:43 20° SSE visible
13 Mar ? 21:30:25 10° WSW 21:30:48 12° WSW 21:30:48 12° WSW visible
